Location: Pedholt
(56.0260°N, 10.2097°E)
Time: 06:24:40
(UTC+00:00)

IRAS Rocket - Pass Details

Date: 14 July 2020
Orbit: 848 x 877 km, 100.1° (Epoch: 14 August)

Event Time Altitude Azimuth Distance (km) Brightness Sun altitude
Exits shadow 00:11:56 - 155° (SSE) 2,570 6.2 -11.7°
Reaches altitude 10° 00:12:11 10° 155° (SSE) 2,472 6.2 -11.7°
Maximum altitude 00:17:40 82° 68° (ENE) 867 4.3 -11.5°
Drops below altitude 10° 00:23:13 10° 342° (NNW) 2,499 7.6 -11.4°
Sets 00:25:36 0° 342° (NNW) 3,443 8.4 -11.3°
